Weather History for KTCM - April, 2012

Change the Weather History Date:

Friday, April 27, 2012

  Actual Average Record
Temperature  
Mean Temperature 48 °F -  
Max Temperature 57 °F 58 °F 82 °F (1987)
Min Temperature 39 °F 38 °F 32 °F (1958)
Degree Days  
Heating Degree Days 17    
Moisture  
Dew Point 42 °F    
Average Humidity 84    
Maximum Humidity 100    
Minimum Humidity 49    
Precipitation  
Precipitation 0.04 in - - ()
Sea Level Pressure  
Sea Level Pressure 30.28 in    
Wind  
Wind Speed 8 mph (SSW)    
Max Wind Speed 18 mph    
Max Gust Speed 21 mph    
Visibility 10 miles    
Events Rain    
Averages and records for this station are not official NWS values.
T = Trace of Precipitation, MM = Missing Value Source: NWS Daily Summary

Daily Weather History Graph

Daily Weather History Graph

Search for Another Location

Airport or City:

Trip Planner

Search our weather history database for the weather conditions in past years. The results will help you decide how hot, cold, wet, or windy it might be!

Date:

Astronomy

Apr. 27, 2012 Rise Set
Actual Time 5:59 AM PDT 8:16 PM PDT
Civil Twilight 5:26 AM PDT 8:49 PM PDT
Nautical Twilight 4:44 AM PDT 9:31 PM PDT
Astronomical Twilight 3:57 AM PDT 10:19 PM PDT
Moon 10:37 AM PDT (4/27) 1:12 AM PDT (4/27)
Length of Visible Light 15h 23m
Length of Day
14h 16m
Waxing Crescent, 34% of the Moon is Illuminated
Apr 27
Waxing Crescent
Apr 29
First Quarter
May 5
Full
May 12
Last Quarter
May 20
New

Hourly Weather History & Observations

Time (PDT) Temp. Windchill Dew Point Humidity Pressure Visibility Wind Dir Wind Speed Gust Speed Precip Events Conditions
12:55 AM 40.6 °F 36.7 °F 39.7 °F 97% 30.11 in 10.0 mi SSE 5.8 mph - N/A   Mostly Cloudy
1:55 AM 41.5 °F 36.4 °F 40.5 °F 96% 30.13 in 10.0 mi South 8.1 mph - N/A   Overcast
2:55 AM 41.2 °F 36.6 °F 40.5 °F 97% 30.15 in 10.0 mi South 6.9 mph - 0.00 in Rain Light Rain
3:05 AM 41.0 °F 35.8 °F 41.0 °F 100% 30.16 in 10.0 mi South 8.1 mph - N/A   Mostly Cloudy
3:55 AM 39.9 °F 35.8 °F 38.8 °F 96% 30.19 in 10.0 mi South 5.8 mph - 0.00 in   Mostly Cloudy
4:55 AM 42.3 °F 37.3 °F 40.1 °F 92% 30.21 in 10.0 mi South 8.1 mph - N/A   Overcast
4:57 AM 42.8 °F 38.6 °F 41.0 °F 93% 30.21 in 10.0 mi South 6.9 mph - N/A   Overcast
5:30 AM 42.8 °F 38.0 °F 39.2 °F 87% 30.22 in 10.0 mi South 8.1 mph - N/A   Overcast
5:55 AM 41.9 °F 36.9 °F 40.3 °F 94% 30.23 in 10.0 mi South 8.1 mph - N/A   Overcast
6:28 AM 41.0 °F 37.1 °F 39.2 °F 93% 30.24 in 10.0 mi South 5.8 mph - N/A Rain Light Rain
6:37 AM 41.0 °F 36.4 °F 41.0 °F 100% 30.25 in 10.0 mi South 6.9 mph - N/A   Mostly Cloudy
6:55 AM 42.8 °F 38.6 °F 41.5 °F 95% 30.26 in 10.0 mi South 6.9 mph - 0.00 in   Overcast
6:59 AM 42.8 °F 38.0 °F 41.0 °F 93% 30.26 in 10.0 mi South 8.1 mph - N/A Rain Light Rain
7:09 AM 42.8 °F 38.6 °F 41.0 °F 93% 30.26 in 10.0 mi South 6.9 mph - N/A   Overcast
7:24 AM 42.8 °F 38.6 °F 42.8 °F 100% 30.27 in 10.0 mi South 6.9 mph - N/A Rain Light Rain
7:34 AM 44.6 °F 40.2 °F 42.8 °F 93% 30.27 in 10.0 mi South 8.1 mph - N/A   Overcast
7:55 AM 45.1 °F 39.1 °F 41.7 °F 88% 30.27 in 10.0 mi South 12.7 mph - 0.00 in   Overcast
8:45 AM 46.4 °F 41.5 °F 41.0 °F 81% 30.28 in 10.0 mi SSW 10.4 mph - N/A   Overcast
8:47 AM 46.4 °F 41.1 °F 41.0 °F 81% 30.28 in 10.0 mi SSW 11.5 mph - N/A   Overcast
8:48 AM 46.4 °F 41.1 °F 41.0 °F 81% 30.28 in 10.0 mi SSW 11.5 mph - N/A   Overcast
8:55 AM 45.9 °F 40.8 °F 41.0 °F 83% 30.29 in 10.0 mi SSW 10.4 mph - N/A   Overcast
8:56 AM 46.4 °F 41.5 °F 41.0 °F 81% 30.29 in 10.0 mi SW 10.4 mph - N/A Rain Light Rain
9:06 AM 46.4 °F 41.9 °F 42.8 °F 87% 30.29 in 10.0 mi SSW 9.2 mph - N/A   Overcast
9:20 AM 46.4 °F 40.7 °F 41.0 °F 81% 30.29 in 10.0 mi SSW 12.7 mph 20.7 mph N/A Rain Light Rain
9:25 AM 46.4 °F 41.1 °F 41.0 °F 81% 30.30 in 10.0 mi SSW 11.5 mph - N/A Rain Light Rain
9:28 AM 46.4 °F 41.5 °F 41.0 °F 81% 30.30 in 10.0 mi SSW 10.4 mph - N/A Rain Light Rain
9:30 AM 46.4 °F 42.4 °F 41.0 °F 81% 30.30 in 10.0 mi SSW 8.1 mph - N/A   Overcast
9:34 AM 46.4 °F 41.9 °F 41.0 °F 81% 30.30 in 10.0 mi SSW 9.2 mph - N/A   Overcast
9:43 AM 46.4 °F 41.9 °F 41.0 °F 81% 30.29 in 10.0 mi SSW 9.2 mph - N/A Rain Light Rain
9:52 AM 48.2 °F - 41.0 °F 76% 30.30 in 10.0 mi SSW 12.7 mph - N/A   Overcast
9:55 AM 47.7 °F - 40.8 °F 77% 30.30 in 10.0 mi SSW 12.7 mph - 0.00 in   Overcast
10:55 AM 50.7 °F - 40.3 °F 67% 30.30 in 10.0 mi SSW 15.0 mph 20.7 mph N/A   Overcast
11:26 AM 51.8 °F - 41.0 °F 67% 30.30 in 10.0 mi SW 10.4 mph - N/A   Mostly Cloudy
11:28 AM 51.8 °F - 41.0 °F 67% 30.30 in 10.0 mi SW 11.5 mph - N/A   Mostly Cloudy
11:55 AM 52.3 °F - 39.4 °F 61% 30.30 in 10.0 mi WSW 18.4 mph - N/A   Mostly Cloudy
12:55 PM 54.7 °F - 41.5 °F 61% 30.29 in 10.0 mi WSW 10.4 mph 19.6 mph N/A   Scattered Clouds
1:55 PM 57.4 °F - 38.5 °F 49% 30.28 in 10.0 mi SW 13.8 mph - N/A   Scattered Clouds
2:55 PM 55.6 °F - 37.9 °F 52% 30.28 in 10.0 mi WSW 9.2 mph - N/A   Overcast
3:55 PM 55.0 °F - 39.6 °F 56% 30.28 in 10.0 mi SW 8.1 mph - N/A   Overcast
4:23 PM 55.4 °F - 39.2 °F 54% 30.28 in 10.0 mi SW 8.1 mph - N/A Rain Light Rain
4:52 PM 53.6 °F - 41.0 °F 62% 30.28 in 10.0 mi WSW 9.2 mph - N/A   Mostly Cloudy
4:55 PM 54.0 °F - 40.3 °F 60% 30.28 in 10.0 mi SW 8.1 mph - 0.00 in   Mostly Cloudy
5:50 PM 53.6 °F - 41.0 °F 62% 30.29 in 10.0 mi Variable 4.6 mph - N/A Rain Light Rain
5:55 PM 52.2 °F - 42.6 °F 70% 30.30 in 10.0 mi West 9.2 mph 16.1 mph 0.00 in Rain Light Rain
6:02 PM 50.0 °F - 44.6 °F 82% 30.30 in 9.0 mi West 12.7 mph 19.6 mph N/A Rain Light Rain
6:04 PM 50.0 °F - 44.6 °F 82% 30.30 in 9.0 mi West 9.2 mph 19.6 mph N/A Rain Light Rain
6:55 PM 48.6 °F - 44.6 °F 86% 30.30 in 10.0 mi Variable 6.9 mph - 0.02 in Rain Light Rain
7:55 PM 48.4 °F - 44.8 °F 87% 30.30 in 10.0 mi West 4.6 mph - 0.01 in Rain Light Rain
7:58 PM 48.2 °F - 44.6 °F 87% 30.30 in 10.0 mi WSW 4.6 mph - N/A Rain Light Rain
8:04 PM 48.2 °F - 44.6 °F 87% 30.30 in 9.0 mi WSW 9.2 mph - N/A Rain Light Rain
8:14 PM 48.2 °F - 44.6 °F 87% 30.31 in 7.0 mi West 4.6 mph - N/A Rain Light Rain
8:28 PM 46.4 °F 45.2 °F 44.6 °F 93% 30.31 in 10.0 mi SSW 3.5 mph - N/A   Mostly Cloudy
8:55 PM 46.6 °F - 45.1 °F 95% 30.31 in 10.0 mi SE 3.5 mph - 0.01 in   Mostly Cloudy
9:51 PM 46.4 °F - 46.4 °F 100% 30.31 in 10.0 mi Calm Calm - N/A   Overcast
9:55 PM 46.8 °F - 45.7 °F 96% 30.31 in 10.0 mi Calm Calm - N/A   Overcast
10:03 PM 46.4 °F 45.2 °F 46.4 °F 100% 30.31 in 10.0 mi SE 3.5 mph - N/A   Overcast
10:16 PM 46.4 °F - 46.4 °F 100% 30.32 in 10.0 mi Calm Calm - N/A   Overcast
10:31 PM 46.4 °F 45.2 °F 46.4 °F 100% 30.32 in 10.0 mi ESE 3.5 mph - N/A   Overcast
10:32 PM 46.4 °F 45.2 °F 46.4 °F 100% 30.32 in 10.0 mi ESE 3.5 mph - N/A   Overcast
10:53 PM 46.4 °F 45.2 °F 46.4 °F 100% 30.31 in 10.0 mi ESE 3.5 mph - N/A   Overcast
10:55 PM 46.9 °F - 46.2 °F 97% 30.31 in 10.0 mi ESE 3.5 mph - N/A   Overcast
11:55 PM 47.1 °F - 46.2 °F 97% 30.31 in 10.0 mi SE 3.5 mph - N/A   Overcast